KEPLER-21

导读

KEPLER-21是一颗由加拿大(CA)于2023年4月15日08:00发射的卫星。作为开普勒系列卫星的成员,它延续了该系列系外行星搜寻的核心使命,依托高精度测光技术监测恒星亮度变化,助力科学家捕捉系外行星凌星信号,进一步拓展人类对太阳系外行星系统的认知,推动天体物理与行星科学领域研究深入发展。

Basic Information
目录编号:
56218
目录名称:
KEPLER-21
国际标识:
2023-054AS
轨道中心:
EARTH
卫星名称:
KEPLER-21
卫星全名:
--
卫星状态:
已陨落 最后检测时间 2026-07-10
发射日期:
2023-04-15 UTC
国别 :
加拿大 (CA)
星等 :
--
Orbit Information
数据来源 国际轨道数据
星历时间: 2026-07-10T00:13:07+0800
轨道信息已过期16天
半长轴: 6543.715km
偏心率: 0.0009463
轨道倾角: 97.271°
近地点辐角 220.654°
升交点赤经 113.185°
平近点角 139.405°
近地点: 159.385km
远地点: 171.771km
周期: 87.800分钟
每日圈数: 16.400846
Detailed Information
使用方式:
暂无